Location: ??????
(55.2000°N, 38.3000°E)
Time: 00:31:41
(UTC+00:00)

ADEOS Rocket - Pass Details

Date: 15 November 2025
Orbit: 859 x 1304 km, 98.7° (Epoch: 12 December)

Event Time Altitude Azimuth Distance (km) Brightness Sun altitude
Rises 00:13:01 0° 17° (NNE) 3,846 6.6 -39.8°
Reaches altitude 10° 00:15:34 10° 24° (NNE) 2,949 6.0 -39.5°
Enters shadow 00:21:56 49° 93° (E) 1,477 4.0 -38.7°
